This is the latest recevied weather packets stored in our database for station/object KB9GXK. If no packets are shown the sender has not sent any weather packets the latest 1 day(s).
| Time | Temp. | Humidity | Pressure | Rain* | Wind** | Luminosity | Snow |
|---|---|---|---|---|---|---|---|
| 1778047961 | 6.67° C | 63% | 1012.1 hPa | 0 mm | 0 m/s | 0 W/m² | - |
| 1778047660 | 6.67° C | 63% | 1012 hPa | 0 mm | 0 m/s | 0 W/m² | - |
| 1778047357 | 6.67° C | 62% | 1012.1 hPa | 0 mm | 0.45 m/s, 61° | 0 W/m² | - |
| 1778047054 | 6.67° C | 62% | 1012.1 hPa | 0 mm | 0 m/s | 0 W/m² | - |
| 1778046750 | 7.22° C | 61% | 1012.2 hPa | 0 mm | 0.45 m/s, 7° | 0 W/m² | - |
| 1778046447 | 7.22° C | 61% | 1012.1 hPa | 0 mm | 0.45 m/s, 35° | 0 W/m² | - |
| 1778046144 | 7.78° C | 60% | 1012.4 hPa | 0 mm | 0.45 m/s, 29° | 0 W/m² | - |
| 1778045841 | 7.78° C | 58% | 1012 hPa | 0 mm | 0.45 m/s, 29° | 0 W/m² | - |
| 1778045540 | 7.78° C | 57% | 1012.1 hPa | 0 mm | 0.45 m/s, 16° | 0 W/m² | - |
| 1778045237 | 7.78° C | 56% | 1012 hPa | 0 mm | 0.45 m/s, 16° | 0 W/m² | - |
| 1778044936 | 8.33° C | 55% | 1012 hPa | 0 mm | 0.45 m/s, 44° | 0 W/m² | - |
| 1778044633 | 8.33° C | 55% | 1012 hPa | 0 mm | 0.45 m/s, 2° | 0 W/m² | - |
| 1778044329 | 8.33° C | 55% | 1012.2 hPa | 0 mm | 1.34 m/s, 281° | 0 W/m² | - |
| 1778044027 | 8.33° C | 55% | 1012 hPa | 0 mm | 0 m/s | 0 W/m² | - |
| 1778043724 | 8.33° C | 57% | 1011.8 hPa | 0 mm | 0 m/s | 0 W/m² | - |
| 1778043421 | 8.33° C | 57% | 1011.9 hPa | 0 mm | 1.34 m/s, 24° | 0 W/m² | - |
| 1778043117 | 8.33° C | 57% | 1012.1 hPa | 0 mm | 0.89 m/s, 0° | 0 W/m² | - |
| 1778042815 | 8.33° C | 57% | 1012 hPa | 0 mm | 0.45 m/s, 14° | 0 W/m² | - |
| 1778042511 | 8.33° C | 57% | 1011.9 hPa | 0 mm | 0.89 m/s, 345° | 0 W/m² | - |
| 1778042209 | 8.33° C | 58% | 1011.8 hPa | 0 mm | 0.45 m/s, 338° | 0 W/m² | - |
| 1778041907 | 8.33° C | 58% | 1011.9 hPa | 0 mm | 0 m/s | 0 W/m² | - |
| 1778041606 | 8.33° C | 58% | 1011.7 hPa | 0 mm | 0.45 m/s, 13° | 0 W/m² | - |
| 1778041303 | 8.33° C | 58% | 1011.7 hPa | 0 mm | 1.34 m/s, 10° | 0 W/m² | - |
| 1778041001 | 8.33° C | 58% | 1011.7 hPa | 0 mm | 0.45 m/s, 12° | 0 W/m² | - |
| 1778040698 | 8.33° C | 57% | 1011.6 hPa | 0 mm | 0.45 m/s, 1° | 0 W/m² | - |
* Rain latest hour (hover to see other rain measurements)
** Current wind speed in m/s (hover to see current wind gust speed)